Data supplied by UK-AIR on 21/3/2020
All Data GMT hour ending 
Status: R =Ratified P=Provisional,P*=As supplied
,,Burton-on-Trent Horninglow,,,,,,,,,,,,,,,,,,,,,,,
Date,time,"Nitric oxide",status,unit,"Nitrogen dioxide",status,unit,"Nitrogen oxides as nitrogen dioxide",status,unit
 
01-01-2019,01:00,1.03789,R,ugm-3,4.86347,R,ugm-3,6.45488,R,ugm-3
01-01-2019,02:00,0.60543,R,ugm-3,3.35298,R,ugm-3,4.28130,R,ugm-3
01-01-2019,03:00,0.81085,R,ugm-3,3.15328,R,ugm-3,4.39656,R,ugm-3
01-01-2019,04:00,0.87572,R,ugm-3,2.26342,R,ugm-3,3.60617,R,ugm-3
01-01-2019,05:00,,,,,,,,,
01-01-2019,06:00,,,,,,,,,
01-01-2019,07:00,,,,,,,,,
01-01-2019,08:00,,,,,,,,,
01-01-2019,09:00,,,,,,,,,
01-01-2019,10:00,,,,,,,,,
01-01-2019,11:00,,,,,,,,,
01-01-2019,12:00,,,,,,,,,
01-01-2019,13:00,,,,,,,,,
01-01-2019,14:00,,,,,,,,,
01-01-2019,15:00,,,,,,,,,
01-01-2019,16:00,,,,,,,,,
01-01-2019,17:00,,,,,,,,,
01-01-2019,18:00,,,,,,,,,
01-01-2019,19:00,,,,,,,,,
01-01-2019,20:00,,,,,,,,,
01-01-2019,21:00,,,,,,,,,
01-01-2019,22:00,,,,,,,,,
01-01-2019,23:00,,,,,,,,,
01-01-2019,24:00,,,,,,,,,
02-01-2019,01:00,,,,,,,,,
02-01-2019,02:00,,,,,,,,,
02-01-2019,03:00,,,,,,,,,
02-01-2019,04:00,,,,,,,,,
02-01-2019,05:00,,,,,,,,,
02-01-2019,06:00,,,,,,,,,
02-01-2019,07:00,,,,,,,,,
02-01-2019,08:00,,,,,,,,,
02-01-2019,09:00,,,,,,,,,
02-01-2019,10:00,,,,,,,,,
02-01-2019,11:00,,,,,,,,,
02-01-2019,12:00,,,,,,,,,
02-01-2019,13:00,,,,,,,,,
02-01-2019,14:00,,,,,,,,,
02-01-2019,15:00,,,,,,,,,
02-01-2019,16:00,,,,,,,,,
02-01-2019,17:00,,,,,,,,,
02-01-2019,18:00,,,,,,,,,
02-01-2019,19:00,,,,,,,,,
02-01-2019,20:00,,,,,,,,,
02-01-2019,21:00,,,,,,,,,
02-01-2019,22:00,,,,,,,,,
02-01-2019,23:00,,,,,,,,,
02-01-2019,24:00,,,,,,,,,
03-01-2019,01:00,,,,,,,,,
03-01-2019,02:00,,,,,,,,,
03-01-2019,03:00,,,,,,,,,
03-01-2019,04:00,,,,,,,,,
03-01-2019,05:00,,,,,,,,,
03-01-2019,06:00,,,,,,,,,
03-01-2019,07:00,,,,,,,,,
03-01-2019,08:00,,,,,,,,,
03-01-2019,09:00,,,,,,,,,
03-01-2019,10:00,,,,,,,,,
03-01-2019,11:00,,,,,,,,,
03-01-2019,12:00,,,,,,,,,
03-01-2019,13:00,,,,,,,,,
03-01-2019,14:00,,,,,,,,,
03-01-2019,15:00,,,,,,,,,
03-01-2019,16:00,,,,,,,,,
03-01-2019,17:00,,,,,,,,,
03-01-2019,18:00,,,,,,,,,
03-01-2019,19:00,,,,,,,,,
03-01-2019,20:00,,,,,,,,,
03-01-2019,21:00,,,,,,,,,
03-01-2019,22:00,,,,,,,,,
03-01-2019,23:00,,,,,,,,,
03-01-2019,24:00,,,,,,,,,
04-01-2019,01:00,,,,,,,,,
04-01-2019,02:00,,,,,,,,,
04-01-2019,03:00,,,,,,,,,
04-01-2019,04:00,,,,,,,,,
04-01-2019,05:00,,,,,,,,,
04-01-2019,06:00,,,,,,,,,
04-01-2019,07:00,,,,,,,,,
04-01-2019,08:00,,,,,,,,,
04-01-2019,09:00,,,,,,,,,
04-01-2019,10:00,,,,,,,,,
04-01-2019,11:00,24.46231,R,ugm-3,46.28097,R,ugm-3,83.78933,R,ugm-3
04-01-2019,12:00,15.23615,R,ugm-3,39.64145,R,ugm-3,63.00322,R,ugm-3
04-01-2019,13:00,13.12453,R,ugm-3,38.46403,R,ugm-3,58.58804,R,ugm-3
04-01-2019,14:00,10.91545,R,ugm-3,36.54310,R,ugm-3,53.27989,R,ugm-3
04-01-2019,15:00,17.41275,R,ugm-3,45.53130,R,ugm-3,72.23047,R,ugm-3
04-01-2019,16:00,11.52187,R,ugm-3,41.46712,R,ugm-3,59.13373,R,ugm-3
04-01-2019,17:00,10.00583,R,ugm-3,47.09893,R,ugm-3,62.44099,R,ugm-3
04-01-2019,18:00,7.40691,R,ugm-3,41.07943,R,ugm-3,52.43654,R,ugm-3
04-01-2019,19:00,8.93378,R,ugm-3,40.77223,R,ugm-3,54.47050,R,ugm-3
04-01-2019,20:00,7.79675,R,ugm-3,41.17621,R,ugm-3,53.13107,R,ugm-3
04-01-2019,21:00,4.09329,R,ugm-3,33.46038,R,ugm-3,39.73668,R,ugm-3
04-01-2019,22:00,3.70346,R,ugm-3,30.28785,R,ugm-3,35.96641,R,ugm-3
04-01-2019,23:00,2.92378,R,ugm-3,29.84625,R,ugm-3,34.32932,R,ugm-3
04-01-2019,24:00,2.79384,R,ugm-3,28.01153,R,ugm-3,32.29535,R,ugm-3
05-01-2019,01:00,1.34350,R,ugm-3,20.06354,R,ugm-3,22.12354,R,ugm-3
05-01-2019,02:00,1.60353,R,ugm-3,18.60501,R,ugm-3,21.06372,R,ugm-3
05-01-2019,03:00,1.52769,R,ugm-3,15.88962,R,ugm-3,18.23204,R,ugm-3
05-01-2019,04:00,1.91774,R,ugm-3,15.14252,R,ugm-3,18.08301,R,ugm-3
05-01-2019,05:00,1.00762,R,ugm-3,8.68879,R,ugm-3,10.23379,R,ugm-3
05-01-2019,06:00,1.17014,R,ugm-3,10.02931,R,ugm-3,11.82351,R,ugm-3
05-01-2019,07:00,1.30016,R,ugm-3,13.20810,R,ugm-3,15.20165,R,ugm-3
05-01-2019,08:00,1.30016,R,ugm-3,14.05264,R,ugm-3,16.04619,R,ugm-3
05-01-2019,09:00,3.47793,R,ugm-3,34.85724,R,ugm-3,40.18999,R,ugm-3
05-01-2019,10:00,3.25040,R,ugm-3,32.52347,R,ugm-3,37.50734,R,ugm-3
05-01-2019,11:00,9.45866,R,ugm-3,40.24274,R,ugm-3,54.74581,R,ugm-3
05-01-2019,12:00,7.47592,R,ugm-3,40.45122,R,ugm-3,51.91413,R,ugm-3
05-01-2019,13:00,7.54093,R,ugm-3,39.90444,R,ugm-3,51.46703,R,ugm-3
05-01-2019,14:00,5.55818,R,ugm-3,34.35020,R,ugm-3,42.87263,R,ugm-3
05-01-2019,15:00,4.51805,R,ugm-3,30.77847,R,ugm-3,37.70605,R,ugm-3
05-01-2019,16:00,4.74558,R,ugm-3,33.85742,R,ugm-3,41.13388,R,ugm-3
05-01-2019,17:00,4.58306,R,ugm-3,36.29247,R,ugm-3,43.31974,R,ugm-3
05-01-2019,18:00,4.55056,R,ugm-3,39.07463,R,ugm-3,46.05206,R,ugm-3
05-01-2019,19:00,4.90810,R,ugm-3,39.17223,R,ugm-3,46.69788,R,ugm-3
05-01-2019,20:00,2.73034,R,ugm-3,36.74871,R,ugm-3,40.93516,R,ugm-3
05-01-2019,21:00,3.93298,R,ugm-3,39.57446,R,ugm-3,45.60495,R,ugm-3
05-01-2019,22:00,3.47793,R,ugm-3,38.28506,R,ugm-3,43.61781,R,ugm-3
05-01-2019,23:00,0.84510,R,ugm-3,19.86728,R,ugm-3,21.16308,R,ugm-3
05-01-2019,24:00,1.07263,R,ugm-3,22.99591,R,ugm-3,24.64059,R,ugm-3
06-01-2019,01:00,0.56371,R,ugm-3,14.19283,R,ugm-3,15.05717,R,ugm-3
06-01-2019,02:00,0.34690,R,ugm-3,13.59663,R,ugm-3,14.12853,R,ugm-3
06-01-2019,03:00,0.68295,R,ugm-3,12.18589,R,ugm-3,13.23306,R,ugm-3
06-01-2019,04:00,0.26017,R,ugm-3,11.59043,R,ugm-3,11.98935,R,ugm-3
06-01-2019,05:00,0.52034,R,ugm-3,11.34075,R,ugm-3,12.13860,R,ugm-3
06-01-2019,06:00,0.68295,R,ugm-3,11.78790,R,ugm-3,12.83508,R,ugm-3
06-01-2019,07:00,0.74800,R,ugm-3,11.33993,R,ugm-3,12.48684,R,ugm-3
06-01-2019,08:00,1.20330,R,ugm-3,20.64123,R,ugm-3,22.48626,R,ugm-3
06-01-2019,09:00,6.17909,R,ugm-3,35.74679,R,ugm-3,45.22126,R,ugm-3
06-01-2019,10:00,2.37407,R,ugm-3,20.58726,R,ugm-3,24.22745,R,ugm-3
06-01-2019,11:00,2.69928,R,ugm-3,17.05395,R,ugm-3,21.19280,R,ugm-3
06-01-2019,12:00,2.21146,R,ugm-3,14.41905,R,ugm-3,17.80991,R,ugm-3
06-01-2019,13:00,2.60172,R,ugm-3,15.21362,R,ugm-3,19.20287,R,ugm-3
06-01-2019,14:00,2.73181,R,ugm-3,15.06390,R,ugm-3,19.25261,R,ugm-3
06-01-2019,15:00,2.63424,R,ugm-3,18.54664,R,ugm-3,22.58576,R,ugm-3
06-01-2019,16:00,2.79685,R,ugm-3,25.66007,R,ugm-3,29.94851,R,ugm-3
06-01-2019,17:00,3.70745,R,ugm-3,33.91501,R,ugm-3,39.59969,R,ugm-3
06-01-2019,18:00,5.43109,R,ugm-3,36.64496,R,ugm-3,44.97251,R,ugm-3
06-01-2019,19:00,19.09012,R,ugm-3,51.07248,R,ugm-3,80.34360,R,ugm-3
06-01-2019,20:00,23.90331,R,ugm-3,51.45312,R,ugm-3,88.10434,R,ugm-3
06-01-2019,21:00,10.11419,R,ugm-3,38.46876,R,ugm-3,53.97697,R,ugm-3
06-01-2019,22:00,6.37421,R,ugm-3,35.09936,R,ugm-3,44.87302,R,ugm-3
06-01-2019,23:00,1.33338,R,ugm-3,18.45183,R,ugm-3,20.49632,R,ugm-3
06-01-2019,24:00,0.35774,R,ugm-3,8.65493,R,ugm-3,9.20345,R,ugm-3
07-01-2019,01:00,1.12802,R,ugm-3,17.13485,R,ugm-3,18.86446,R,ugm-3
07-01-2019,02:00,0.69417,R,ugm-3,19.59354,R,ugm-3,20.65791,R,ugm-3
07-01-2019,03:00,0.68332,R,ugm-3,20.37405,R,ugm-3,21.42179,R,ugm-3
07-01-2019,04:00,0.58570,R,ugm-3,24.50918,R,ugm-3,25.40724,R,ugm-3
07-01-2019,05:00,3.05867,R,ugm-3,45.87550,R,ugm-3,50.56539,R,ugm-3
07-01-2019,06:00,2.34281,R,ugm-3,34.41897,R,ugm-3,38.01122,R,ugm-3
07-01-2019,07:00,7.38636,R,ugm-3,47.75870,R,ugm-3,59.08429,R,ugm-3
07-01-2019,08:00,2.83090,R,ugm-3,39.30003,R,ugm-3,43.64067,R,ugm-3
07-01-2019,09:00,13.30846,R,ugm-3,56.61279,R,ugm-3,77.01881,R,ugm-3
07-01-2019,10:00,7.58159,R,ugm-3,45.31716,R,ugm-3,56.94211,R,ugm-3
07-01-2019,11:00,3.61183,R,ugm-3,24.95062,R,ugm-3,30.48869,R,ugm-3
07-01-2019,12:00,3.77453,R,ugm-3,26.89316,R,ugm-3,32.68069,R,ugm-3
07-01-2019,13:00,4.55546,R,ugm-3,18.72120,R,ugm-3,25.70615,R,ugm-3
07-01-2019,14:00,4.00230,R,ugm-3,11.99702,R,ugm-3,18.13380,R,ugm-3
07-01-2019,15:00,3.83961,R,ugm-3,13.54176,R,ugm-3,19.42907,R,ugm-3
07-01-2019,16:00,3.57929,R,ugm-3,14.58853,R,ugm-3,20.07670,R,ugm-3
07-01-2019,17:00,3.93722,R,ugm-3,15.63389,R,ugm-3,21.67088,R,ugm-3
07-01-2019,18:00,4.62054,R,ugm-3,20.36505,R,ugm-3,27.44978,R,ugm-3
07-01-2019,19:00,2.24519,R,ugm-3,10.70577,R,ugm-3,14.14835,R,ugm-3
07-01-2019,20:00,1.13887,R,ugm-3,9.21375,R,ugm-3,10.95999,R,ugm-3
07-01-2019,21:00,1.26902,R,ugm-3,8.21709,R,ugm-3,10.16290,R,ugm-3
07-01-2019,22:00,1.33410,R,ugm-3,6.92167,R,ugm-3,8.96726,R,ugm-3
07-01-2019,23:00,1.43172,R,ugm-3,7.91781,R,ugm-3,10.11308,R,ugm-3
07-01-2019,24:00,0.81348,R,ugm-3,5.47813,R,ugm-3,6.72545,R,ugm-3
08-01-2019,01:00,0.52091,R,ugm-3,3.19232,R,ugm-3,3.99103,R,ugm-3
08-01-2019,02:00,0.47750,R,ugm-3,2.72674,R,ugm-3,3.45889,R,ugm-3
08-01-2019,03:00,0.52091,R,ugm-3,2.89299,R,ugm-3,3.69170,R,ugm-3
08-01-2019,04:00,0.65113,R,ugm-3,3.34186,R,ugm-3,4.34025,R,ugm-3
08-01-2019,05:00,0.78136,R,ugm-3,3.99028,R,ugm-3,5.18834,R,ugm-3
08-01-2019,06:00,1.33482,R,ugm-3,6.63380,R,ugm-3,8.68049,R,ugm-3
08-01-2019,07:00,2.47430,R,ugm-3,8.57832,R,ugm-3,12.37219,R,ugm-3
08-01-2019,08:00,2.70219,R,ugm-3,12.71880,R,ugm-3,16.86210,R,ugm-3
08-01-2019,09:00,3.38588,R,ugm-3,17.40760,R,ugm-3,22.59921,R,ugm-3
08-01-2019,10:00,3.77656,R,ugm-3,18.60453,R,ugm-3,24.39517,R,ugm-3
08-01-2019,11:00,3.48355,R,ugm-3,13.51625,R,ugm-3,18.85762,R,ugm-3
08-01-2019,12:00,3.80912,R,ugm-3,12.76762,R,ugm-3,18.60818,R,ugm-3
08-01-2019,13:00,3.97190,R,ugm-3,13.31623,R,ugm-3,19.40638,R,ugm-3
08-01-2019,14:00,3.67889,R,ugm-3,13.66573,R,ugm-3,19.30661,R,ugm-3
08-01-2019,15:00,3.38588,R,ugm-3,15.31231,R,ugm-3,20.50392,R,ugm-3
08-01-2019,16:00,4.75325,R,ugm-3,26.78520,R,ugm-3,34.07342,R,ugm-3
08-01-2019,17:00,5.79506,R,ugm-3,33.86827,R,ugm-3,42.75391,R,ugm-3
08-01-2019,18:00,4.49280,R,ugm-3,29.52928,R,ugm-3,36.41815,R,ugm-3
08-01-2019,19:00,3.93934,R,ugm-3,32.02421,R,ugm-3,38.06445,R,ugm-3
08-01-2019,20:00,2.27896,R,ugm-3,24.19342,R,ugm-3,27.68777,R,ugm-3
08-01-2019,21:00,2.18129,R,ugm-3,25.14138,R,ugm-3,28.48598,R,ugm-3
08-01-2019,22:00,2.50685,R,ugm-3,25.54017,R,ugm-3,29.38396,R,ugm-3
08-01-2019,23:00,2.50685,R,ugm-3,25.78961,R,ugm-3,29.63340,R,ugm-3
08-01-2019,24:00,1.56271,R,ugm-3,24.09434,R,ugm-3,26.49046,R,ugm-3
09-01-2019,01:00,1.12923,R,ugm-3,22.38142,R,ugm-3,24.11289,R,ugm-3
09-01-2019,02:00,1.08580,R,ugm-3,21.44886,R,ugm-3,23.11373,R,ugm-3
09-01-2019,03:00,1.14009,R,ugm-3,20.53299,R,ugm-3,22.28111,R,ugm-3
09-01-2019,04:00,1.14009,R,ugm-3,19.63375,R,ugm-3,21.38187,R,ugm-3
09-01-2019,05:00,1.46583,R,ugm-3,15.03776,R,ugm-3,17.28534,R,ugm-3
09-01-2019,06:00,2.86652,R,ugm-3,17.48618,R,ugm-3,21.88145,R,ugm-3
09-01-2019,07:00,5.96105,R,ugm-3,26.07998,R,ugm-3,35.22013,R,ugm-3
09-01-2019,08:00,10.42370,R,ugm-3,35.72337,R,ugm-3,51.70616,R,ugm-3
09-01-2019,09:00,13.29022,R,ugm-3,39.62108,R,ugm-3,59.99912,R,ugm-3
09-01-2019,10:00,11.98725,R,ugm-3,34.37507,R,ugm-3,52.75526,R,ugm-3
09-01-2019,11:00,9.25103,R,ugm-3,27.52991,R,ugm-3,41.71463,R,ugm-3
09-01-2019,12:00,7.88292,R,ugm-3,21.63443,R,ugm-3,33.72141,R,ugm-3
09-01-2019,13:00,6.38452,R,ugm-3,21.98360,R,ugm-3,31.77306,R,ugm-3
09-01-2019,14:00,6.77540,R,ugm-3,27.72887,R,ugm-3,38.11768,R,ugm-3
09-01-2019,15:00,7.52461,R,ugm-3,31.82566,R,ugm-3,43.36323,R,ugm-3
09-01-2019,16:00,7.94807,R,ugm-3,38.17043,R,ugm-3,50.35730,R,ugm-3
09-01-2019,17:00,12.21527,R,ugm-3,52.21002,R,ugm-3,70.93984,R,ugm-3
09-01-2019,18:00,15.63555,R,ugm-3,55.50843,R,ugm-3,79.48260,R,ugm-3
09-01-2019,19:00,14.88634,R,ugm-3,57.00690,R,ugm-3,79.83230,R,ugm-3
09-01-2019,20:00,6.22165,R,ugm-3,46.56270,R,ugm-3,56.10243,R,ugm-3
09-01-2019,21:00,3.71344,R,ugm-3,37.76928,R,ugm-3,43.46314,R,ugm-3
09-01-2019,22:00,4.16948,R,ugm-3,37.36978,R,ugm-3,43.76289,R,ugm-3
09-01-2019,23:00,3.22483,R,ugm-3,35.82076,R,ugm-3,40.76543,R,ugm-3
09-01-2019,24:00,2.80137,R,ugm-3,38.56828,R,ugm-3,42.86365,R,ugm-3
10-01-2019,01:00,3.78062,R,ugm-3,39.89482,R,ugm-3,45.69169,R,ugm-3
10-01-2019,02:00,1.78167,R,ugm-3,36.82314,R,ugm-3,39.55500,R,ugm-3
10-01-2019,03:00,29.03909,R,ugm-3,48.62503,R,ugm-3,93.15101,R,ugm-3
10-01-2019,04:00,24.44368,R,ugm-3,47.36668,R,ugm-3,84.84647,R,ugm-3
10-01-2019,05:00,21.51044,R,ugm-3,47.21171,R,ugm-3,80.19392,R,ugm-3
10-01-2019,06:00,19.03348,R,ugm-3,52.86067,R,ugm-3,82.04493,R,ugm-3
10-01-2019,07:00,36.11146,R,ugm-3,53.18931,R,ugm-3,108.55945,R,ugm-3
10-01-2019,08:00,33.34118,R,ugm-3,52.48431,R,ugm-3,103.60674,R,ugm-3
10-01-2019,09:00,46.54077,R,ugm-3,51.95602,R,ugm-3,123.31753,R,ugm-3
10-01-2019,10:00,40.93502,R,ugm-3,49.69544,R,ugm-3,112.46159,R,ugm-3
10-01-2019,11:00,30.27757,R,ugm-3,47.82665,R,ugm-3,94.25162,R,ugm-3
10-01-2019,12:00,26.92064,R,ugm-3,47.77103,R,ugm-3,89.04877,R,ugm-3
10-01-2019,13:00,23.59630,R,ugm-3,44.21354,R,ugm-3,80.39403,R,ugm-3
10-01-2019,14:00,7.56125,R,ugm-3,29.82894,R,ugm-3,41.42269,R,ugm-3
10-01-2019,15:00,5.54057,R,ugm-3,25.72332,R,ugm-3,34.21874,R,ugm-3
10-01-2019,16:00,6.68127,R,ugm-3,28.92698,R,ugm-3,39.17145,R,ugm-3
10-01-2019,17:00,6.12722,R,ugm-3,31.67756,R,ugm-3,41.07249,R,ugm-3
10-01-2019,18:00,6.35536,R,ugm-3,34.92972,R,ugm-3,44.67447,R,ugm-3
10-01-2019,19:00,4.92133,R,ugm-3,36.72832,R,ugm-3,44.27425,R,ugm-3
10-01-2019,20:00,4.00876,R,ugm-3,37.07699,R,ugm-3,43.22367,R,ugm-3
10-01-2019,21:00,2.54214,R,ugm-3,32.77219,R,ugm-3,36.67008,R,ugm-3
10-01-2019,22:00,3.42212,R,ugm-3,39.27721,R,ugm-3,44.52438,R,ugm-3
10-01-2019,23:00,4.85614,R,ugm-3,39.67982,R,ugm-3,47.12581,R,ugm-3
10-01-2019,24:00,1.66217,R,ugm-3,29.96918,R,ugm-3,32.51781,R,ugm-3
11-01-2019,01:00,1.13045,R,ugm-3,24.91836,R,ugm-3,26.65169,R,ugm-3
11-01-2019,02:00,0.95653,R,ugm-3,19.50735,R,ugm-3,20.97401,R,ugm-3
11-01-2019,03:00,0.61957,R,ugm-3,17.63605,R,ugm-3,18.58605,R,ugm-3
11-01-2019,04:00,0.84784,R,ugm-3,15.58274,R,ugm-3,16.88274,R,ugm-3
11-01-2019,05:00,1.20654,R,ugm-3,16.53566,R,ugm-3,18.38566,R,ugm-3
11-01-2019,06:00,4.66310,R,ugm-3,30.07220,R,ugm-3,37.22219,R,ugm-3
11-01-2019,07:00,5.90225,R,ugm-3,26.91977,R,ugm-3,35.96976,R,ugm-3
11-01-2019,08:00,9.00011,R,ugm-3,31.63815,R,ugm-3,45.43812,R,ugm-3
11-01-2019,09:00,32.70692,R,ugm-3,49.99431,R,ugm-3,100.14422,R,ugm-3
11-01-2019,10:00,67.04429,R,ugm-3,53.90409,R,ugm-3,156.70391,R,ugm-3
11-01-2019,11:00,9.39142,R,ugm-3,28.38300,R,ugm-3,42.78297,R,ugm-3
11-01-2019,12:00,6.75008,R,ugm-3,23.16502,R,ugm-3,33.51500,R,ugm-3
11-01-2019,13:00,5.90225,R,ugm-3,24.51511,R,ugm-3,33.56510,R,ugm-3
11-01-2019,14:00,7.30444,R,ugm-3,31.08202,R,ugm-3,42.28200,R,ugm-3
11-01-2019,15:00,7.82618,R,ugm-3,38.74844,R,ugm-3,50.74842,R,ugm-3
11-01-2019,16:00,7.36966,R,ugm-3,45.25971,R,ugm-3,56.55969,R,ugm-3
11-01-2019,17:00,8.77185,R,ugm-3,53.93070,R,ugm-3,67.38068,R,ugm-3
11-01-2019,18:00,17.96761,R,ugm-3,67.13368,R,ugm-3,94.68363,R,ugm-3
11-01-2019,19:00,15.78280,R,ugm-3,65.97493,R,ugm-3,90.17488,R,ugm-3
11-01-2019,20:00,5.25006,R,ugm-3,51.11476,R,ugm-3,59.16474,R,ugm-3
11-01-2019,21:00,3.84787,R,ugm-3,48.15484,R,ugm-3,54.05483,R,ugm-3
11-01-2019,22:00,3.84787,R,ugm-3,35.17968,R,ugm-3,41.07967,R,ugm-3
11-01-2019,23:00,1.95655,R,ugm-3,17.38955,R,ugm-3,20.38954,R,ugm-3
11-01-2019,24:00,1.01088,R,ugm-3,10.47332,R,ugm-3,12.02332,R,ugm-3
12-01-2019,01:00,1.04405,R,ugm-3,8.43253,R,ugm-3,10.03338,R,ugm-3
12-01-2019,02:00,0.91355,R,ugm-3,6.82663,R,ugm-3,8.22737,R,ugm-3
12-01-2019,03:00,0.29364,R,ugm-3,11.28882,R,ugm-3,11.73906,R,ugm-3
12-01-2019,04:00,0.35889,R,ugm-3,6.82424,R,ugm-3,7.37454,R,ugm-3
12-01-2019,05:00,0.52203,R,ugm-3,2.46042,R,ugm-3,3.26085,R,ugm-3
12-01-2019,06:00,0.68516,R,ugm-3,3.21363,R,ugm-3,4.26419,R,ugm-3
12-01-2019,07:00,1.07668,R,ugm-3,5.77382,R,ugm-3,7.42470,R,ugm-3
12-01-2019,08:00,1.66396,R,ugm-3,8.33486,R,ugm-3,10.88622,R,ugm-3
12-01-2019,09:00,1.63133,R,ugm-3,9.23772,R,ugm-3,11.73906,R,ugm-3
12-01-2019,10:00,1.46820,R,ugm-3,8.23368,R,ugm-3,10.48489,R,ugm-3
12-01-2019,11:00,1.69658,R,ugm-3,8.08416,R,ugm-3,10.68555,R,ugm-3
12-01-2019,12:00,2.02285,R,ugm-3,8.98857,R,ugm-3,12.09023,R,ugm-3
12-01-2019,13:00,2.15336,R,ugm-3,10.49414,R,ugm-3,13.79590,R,ugm-3
12-01-2019,14:00,1.89234,R,ugm-3,9.13851,R,ugm-3,12.04006,R,ugm-3
12-01-2019,15:00,1.43557,R,ugm-3,7.07970,R,ugm-3,9.28088,R,ugm-3
12-01-2019,16:00,1.66396,R,ugm-3,7.43185,R,ugm-3,9.98322,R,ugm-3
12-01-2019,17:00,1.66396,R,ugm-3,9.53886,R,ugm-3,12.09023,R,ugm-3
12-01-2019,18:00,2.02285,R,ugm-3,12.39992,R,ugm-3,15.50158,R,ugm-3
12-01-2019,19:00,1.76184,R,ugm-3,11.59613,R,ugm-3,14.29757,R,ugm-3
12-01-2019,20:00,0.97880,R,ugm-3,6.12457,R,ugm-3,7.62537,R,ugm-3
12-01-2019,21:00,0.88092,R,ugm-3,5.02048,R,ugm-3,6.37120,R,ugm-3
12-01-2019,22:00,0.52203,R,ugm-3,4.01560,R,ugm-3,4.81603,R,ugm-3
12-01-2019,23:00,0.52203,R,ugm-3,3.16276,R,ugm-3,3.96319,R,ugm-3
12-01-2019,24:00,0.39152,R,ugm-3,1.80769,R,ugm-3,2.40801,R,ugm-3
13-01-2019,01:00,0.60936,R,ugm-3,1.74496,R,ugm-3,2.67929,R,ugm-3
13-01-2019,02:00,0.43526,R,ugm-3,1.14114,R,ugm-3,1.80852,R,ugm-3
13-01-2019,03:00,0.26115,R,ugm-3,1.05643,R,ugm-3,1.45686,R,ugm-3
13-01-2019,04:00,0.32644,R,ugm-3,1.81035,R,ugm-3,2.31089,R,ugm-3
13-01-2019,05:00,0.32644,R,ugm-3,1.91083,R,ugm-3,2.41136,R,ugm-3
13-01-2019,06:00,0.39173,R,ugm-3,2.96616,R,ugm-3,3.56681,R,ugm-3
13-01-2019,07:00,0.78346,R,ugm-3,3.77214,R,ugm-3,4.97343,R,ugm-3
13-01-2019,08:00,0.81610,R,ugm-3,5.07848,R,ugm-3,6.32982,R,ugm-3
13-01-2019,09:00,0.97932,R,ugm-3,5.88318,R,ugm-3,7.38479,R,ugm-3
13-01-2019,10:00,0.94668,R,ugm-3,8.04318,R,ugm-3,9.49473,R,ugm-3
13-01-2019,11:00,2.48095,R,ugm-3,15.23563,R,ugm-3,19.03970,R,ugm-3
13-01-2019,12:00,1.33841,R,ugm-3,6.68898,R,ugm-3,8.74118,R,ugm-3
13-01-2019,13:00,1.40370,R,ugm-3,6.23722,R,ugm-3,8.38953,R,ugm-3
13-01-2019,14:00,1.46899,R,ugm-3,5.93617,R,ugm-3,8.18858,R,ugm-3
13-01-2019,15:00,1.46899,R,ugm-3,4.52954,R,ugm-3,6.78195,R,ugm-3
13-01-2019,16:00,1.33841,R,ugm-3,4.77999,R,ugm-3,6.83219,R,ugm-3
13-01-2019,17:00,1.20783,R,ugm-3,5.33186,R,ugm-3,7.18385,R,ugm-3
13-01-2019,18:00,1.40370,R,ugm-3,4.98130,R,ugm-3,7.13361,R,ugm-3
13-01-2019,19:00,1.17519,R,ugm-3,7.39138,R,ugm-3,9.19331,R,ugm-3
13-01-2019,20:00,0.94668,R,ugm-3,7.84223,R,ugm-3,9.29379,R,ugm-3
13-01-2019,21:00,0.78346,R,ugm-3,6.98729,R,ugm-3,8.18858,R,ugm-3
13-01-2019,22:00,0.68553,R,ugm-3,5.52988,R,ugm-3,6.58100,R,ugm-3
13-01-2019,23:00,0.71817,R,ugm-3,3.06847,R,ugm-3,4.16964,R,ugm-3
13-01-2019,24:00,0.42437,R,ugm-3,2.81563,R,ugm-3,3.46633,R,ugm-3
14-01-2019,01:00,0.43549,R,ugm-3,2.14942,R,ugm-3,2.81716,R,ugm-3
14-01-2019,02:00,0.39194,R,ugm-3,2.14912,R,ugm-3,2.75009,R,ugm-3
14-01-2019,03:00,0.42460,R,ugm-3,2.46795,R,ugm-3,3.11900,R,ugm-3
14-01-2019,04:00,0.39194,R,ugm-3,2.06528,R,ugm-3,2.66624,R,ugm-3
14-01-2019,05:00,0.81654,R,ugm-3,2.87312,R,ugm-3,4.12513,R,ugm-3
14-01-2019,06:00,1.20848,R,ugm-3,6.14575,R,ugm-3,7.99872,R,ugm-3
14-01-2019,07:00,3.49480,R,ugm-3,14.66335,R,ugm-3,20.02196,R,ugm-3
14-01-2019,08:00,3.98472,R,ugm-3,19.44585,R,ugm-3,25.55567,R,ugm-3
14-01-2019,09:00,4.70328,R,ugm-3,26.49372,R,ugm-3,33.70531,R,ugm-3
14-01-2019,10:00,5.16054,R,ugm-3,27.50301,R,ugm-3,35.41573,R,ugm-3
14-01-2019,11:00,4.63795,R,ugm-3,23.07243,R,ugm-3,30.18386,R,ugm-3
14-01-2019,12:00,3.78875,R,ugm-3,15.11814,R,ugm-3,20.92748,R,ugm-3
14-01-2019,13:00,3.10286,R,ugm-3,15.86799,R,ugm-3,20.62564,R,ugm-3
14-01-2019,14:00,3.59278,R,ugm-3,17.93395,R,ugm-3,23.44280,R,ugm-3
14-01-2019,15:00,4.63795,R,ugm-3,25.63806,R,ugm-3,32.74949,R,ugm-3
14-01-2019,16:00,4.86659,R,ugm-3,33.33653,R,ugm-3,40.79852,R,ugm-3
14-01-2019,17:00,9.96180,R,ugm-3,50.67719,R,ugm-3,65.95174,R,ugm-3
14-01-2019,18:00,5.97708,R,ugm-3,35.55769,R,ugm-3,44.72242,R,ugm-3
14-01-2019,19:00,3.46213,R,ugm-3,29.60414,R,ugm-3,34.91267,R,ugm-3
14-01-2019,20:00,3.59278,R,ugm-3,38.76081,R,ugm-3,44.26967,R,ugm-3
14-01-2019,21:00,3.29883,R,ugm-3,36.99805,R,ugm-3,42.05618,R,ugm-3
14-01-2019,22:00,4.70328,R,ugm-3,31.62498,R,ugm-3,38.83657,R,ugm-3
14-01-2019,23:00,7.08758,R,ugm-3,44.82176,R,ugm-3,55.68923,R,ugm-3
14-01-2019,24:00,6.46701,R,ugm-3,44.46532,R,ugm-3,54.38126,R,ugm-3
15-01-2019,01:00,4.44437,R,ugm-3,46.31550,R,ugm-3,53.13010,R,ugm-3
15-01-2019,02:00,0.61001,R,ugm-3,11.22212,R,ugm-3,12.15746,R,ugm-3
15-01-2019,03:00,0.55555,R,ugm-3,17.18285,R,ugm-3,18.03468,R,ugm-3
15-01-2019,04:00,0.55555,R,ugm-3,16.22571,R,ugm-3,17.07753,R,ugm-3
15-01-2019,05:00,0.71894,R,ugm-3,10.38341,R,ugm-3,11.48577,R,ugm-3
15-01-2019,06:00,0.91502,R,ugm-3,12.34970,R,ugm-3,13.75270,R,ugm-3
15-01-2019,07:00,1.40520,R,ugm-3,21.87483,R,ugm-3,24.02945,R,ugm-3
15-01-2019,08:00,2.94113,R,ugm-3,33.97775,R,ugm-3,38.48742,R,ugm-3
15-01-2019,09:00,4.77116,R,ugm-3,37.56952,R,ugm-3,44.88519,R,ugm-3
15-01-2019,10:00,7.41817,R,ugm-3,41.41989,R,ugm-3,52.79426,R,ugm-3
15-01-2019,11:00,8.13711,R,ugm-3,32.15658,R,ugm-3,44.63331,R,ugm-3
15-01-2019,12:00,5.65350,R,ugm-3,20.09624,R,ugm-3,28.76481,R,ugm-3
15-01-2019,13:00,5.55546,R,ugm-3,17.57662,R,ugm-3,26.09487,R,ugm-3
15-01-2019,14:00,5.29402,R,ugm-3,20.04290,R,ugm-3,28.16030,R,ugm-3
15-01-2019,15:00,4.31365,R,ugm-3,24.61907,R,ugm-3,31.23324,R,ugm-3
15-01-2019,16:00,6.07833,R,ugm-3,36.06899,R,ugm-3,45.38895,R,ugm-3
15-01-2019,17:00,2.32022,R,ugm-3,30.24481,R,ugm-3,33.80243,R,ugm-3
15-01-2019,18:00,3.49667,R,ugm-3,40.68236,R,ugm-3,46.04385,R,ugm-3
15-01-2019,19:00,3.95418,R,ugm-3,38.36882,R,ugm-3,44.43181,R,ugm-3
15-01-2019,20:00,2.97380,R,ugm-3,35.74119,R,ugm-3,40.30096,R,ugm-3
15-01-2019,21:00,2.28754,R,ugm-3,23.99789,R,ugm-3,27.50541,R,ugm-3
15-01-2019,22:00,2.51630,R,ugm-3,33.47050,R,ugm-3,37.32876,R,ugm-3
15-01-2019,23:00,1.01306,R,ugm-3,18.64753,R,ugm-3,20.20086,R,ugm-3
15-01-2019,24:00,0.71894,R,ugm-3,14.41351,R,ugm-3,15.51587,R,ugm-3
16-01-2019,01:00,0.78472,R,ugm-3,13.99783,R,ugm-3,15.20105,R,ugm-3
16-01-2019,02:00,0.61034,R,ugm-3,18.90624,R,ugm-3,19.84208,R,ugm-3
16-01-2019,03:00,0.32697,R,ugm-3,11.15168,R,ugm-3,11.65302,R,ugm-3
16-01-2019,04:00,0.32697,R,ugm-3,8.52848,R,ugm-3,9.02983,R,ugm-3
16-01-2019,05:00,0.65393,R,ugm-3,7.77491,R,ugm-3,8.77760,R,ugm-3
16-01-2019,06:00,1.20978,R,ugm-3,20.59349,R,ugm-3,22.44845,R,ugm-3
16-01-2019,07:00,1.14438,R,ugm-3,27.65530,R,ugm-3,29.40999,R,ugm-3
16-01-2019,08:00,2.05989,R,ugm-3,35.13003,R,ugm-3,38.28848,R,ugm-3
16-01-2019,09:00,5.26417,R,ugm-3,42.97970,R,ugm-3,51.05131,R,ugm-3
16-01-2019,10:00,4.41405,R,ugm-3,34.74891,R,ugm-3,41.51702,R,ugm-3
16-01-2019,11:00,5.06799,R,ugm-3,26.22977,R,ugm-3,34.00058,R,ugm-3
16-01-2019,12:00,3.43315,R,ugm-3,19.65621,R,ugm-3,24.92030,R,ugm-3
16-01-2019,13:00,2.81191,R,ugm-3,14.35346,R,ugm-3,18.66500,R,ugm-3
16-01-2019,14:00,3.62933,R,ugm-3,19.60764,R,ugm-3,25.17253,R,ugm-3
16-01-2019,15:00,7.91260,R,ugm-3,36.54787,R,ugm-3,48.68035,R,ugm-3
16-01-2019,16:00,6.70282,R,ugm-3,36.38500,R,ugm-3,46.66251,R,ugm-3
16-01-2019,17:00,5.36226,R,ugm-3,40.91235,R,ugm-3,49.13436,R,ugm-3
16-01-2019,18:00,3.07349,R,ugm-3,36.14861,R,ugm-3,40.86123,R,ugm-3
16-01-2019,19:00,5.23147,R,ugm-3,44.44232,R,ugm-3,52.46380,R,ugm-3
16-01-2019,20:00,7.81451,R,ugm-3,54.20302,R,ugm-3,66.18510,R,ugm-3
16-01-2019,21:00,7.06248,R,ugm-3,55.30566,R,ugm-3,66.13465,R,ugm-3
16-01-2019,22:00,9.84170,R,ugm-3,58.66159,R,ugm-3,73.75199,R,ugm-3
16-01-2019,23:00,8.53383,R,ugm-3,36.15023,R,ugm-3,49.23526,R,ugm-3
16-01-2019,24:00,2.25607,R,ugm-3,16.21466,R,ugm-3,19.67392,R,ugm-3
17-01-2019,01:00,1.13409,R,ugm-3,13.81992,R,ugm-3,15.55884,R,ugm-3
17-01-2019,02:00,0.82876,R,ugm-3,8.42827,R,ugm-3,9.69902,R,ugm-3
17-01-2019,03:00,1.11228,R,ugm-3,12.64099,R,ugm-3,14.34646,R,ugm-3
17-01-2019,04:00,2.58442,R,ugm-3,19.72915,R,ugm-3,23.69187,R,ugm-3
17-01-2019,05:00,1.53757,R,ugm-3,10.27136,R,ugm-3,12.62893,R,ugm-3
17-01-2019,06:00,1.96285,R,ugm-3,9.21514,R,ugm-3,12.22480,R,ugm-3
17-01-2019,07:00,4.51456,R,ugm-3,22.88205,R,ugm-3,29.80427,R,ugm-3
17-01-2019,08:00,6.34655,R,ugm-3,26.53904,R,ugm-3,36.27029,R,ugm-3
17-01-2019,09:00,5.79041,R,ugm-3,26.68456,R,ugm-3,35.56307,R,ugm-3
17-01-2019,10:00,6.60827,R,ugm-3,25.53156,R,ugm-3,35.66410,R,ugm-3
17-01-2019,11:00,5.69227,R,ugm-3,19.81336,R,ugm-3,28.54138,R,ugm-3
17-01-2019,12:00,5.46327,R,ugm-3,16.57787,R,ugm-3,24.95477,R,ugm-3
17-01-2019,13:00,5.49599,R,ugm-3,16.32564,R,ugm-3,24.75270,R,ugm-3
17-01-2019,14:00,5.29970,R,ugm-3,17.13177,R,ugm-3,25.25786,R,ugm-3
17-01-2019,15:00,5.36513,R,ugm-3,19.45620,R,ugm-3,27.68261,R,ugm-3
17-01-2019,16:00,6.54284,R,ugm-3,28.86489,R,ugm-3,38.89710,R,ugm-3
17-01-2019,17:00,10.20683,R,ugm-3,45.77686,R,ugm-3,61.42711,R,ugm-3
17-01-2019,18:00,19.85752,R,ugm-3,61.44032,R,ugm-3,91.88809,R,ugm-3
17-01-2019,19:00,14.91767,R,ugm-3,60.37646,R,ugm-3,83.24990,R,ugm-3